Location: Libas
(9.8833°N, 125.9833°E)
Time: 21:57:57
(UTC+00:00)

Cosmos 1428 Rocket - Pass Details

Date: 27 October 2020
Orbit: 947 x 989 km, 82.9° (Epoch: 25 November)

Event Time Altitude Azimuth Distance (km) Brightness Sun altitude
Rises 20:33:13 0° 190° (S) 3,687 7.5 -13.5°
Reaches altitude 10° 20:35:46 10° 193° (SSW) 2,736 6.8 -12.9°
Maximum altitude 20:41:58 64° 274° (W) 1,076 4.5 -11.4°
Drops below altitude 10° 20:48:07 10° 355° (N) 2,711 6.7 -9.9°
Sets 20:50:38 0° 358° (N) 3,652 7.4 -9.3°
